EW7966 Weather Reports


time (UTC)temp
C
wind
direction
speed
KPH
gust
KPH
rain 1hr
cm
rain 24hr
cm
rain mn
cm
humidity
%
barometer
mb
20260904152007 24 278 1.6 11.3 0.00 0.00 0.00 31 1018.9
20260904151507 23 255 4.8 11.3 0.00 0.00 0.00 30 1018.9
20260904151503 23 255 3.2 11.3 0.00 0.00 0.00 30 1002.1
20260904151006 22 234 4.8 8.0 0.00 0.00 0.00 31 1018.9
20260904150506 22 244 3.2 8.0 0.00 0.00 0.00 33 1018.8
20260904150011 22 254 3.2 12.9 0.00 0.00 0.00 32 1002.0
20260904150006 22 254 3.2 12.9 0.00 0.00 0.00 32 1018.8
20260904145507 22 271 6.4 12.9 0.00 0.00 0.00 31 1018.9
20260904145006 22 244 4.8 9.7 0.00 0.00 0.00 32 1019.0
20260904144506 21 246 3.2 9.7 0.00 0.00 0.00 33 1018.8
20260904144504 21 246 3.2 9.7 0.00 0.00 0.00 33 1002.1
20260904144006 21 213 3.2 8.0 0.00 0.00 0.00 33 1018.9
20260904143505 21 236 4.8 8.0 0.00 0.00 0.00 33 1018.8
20260904143006 21 261 4.8 6.4 0.00 0.00 0.00 34 1018.8
20260904143004 21 261 3.2 6.4 0.00 0.00 0.00 34 1002.1
20260904142505 21 55 3.2 4.8 0.00 0.00 0.00 33 1018.9
20260904142007 21 55 3.2 4.8 0.00 0.00 0.00 33 1018.9
20260904141505 21 205 0.0 1.6 0.00 0.00 0.00 34 1018.8
20260904140506 19 163 1.6 3.2 0.00 0.00 0.00 36 1018.6
20260904140008 19 163 0.0 3.2 0.00 0.00 0.00 37 1018.5
20260904140005 19 163 0.0 3.2 0.00 0.00 0.00 37 1001.8
20260904135505 18 163 1.6 3.2 0.00 0.00 0.00 38 1018.5
20260904135007 17 163 0.0 4.8 0.00 0.00 0.00 42 1018.5
20260904134507 17 163 0.0 4.8 0.00 0.00 0.00 43 1018.4
20260904134505 17 163 0.0 4.8 0.00 0.00 0.00 43 1001.7
20260904133504 17 163 3.2 4.8 0.00 0.00 0.00 44 1018.2
20260904133008 16 163 3.2 8.0 0.00 0.00 0.00 42 1018.2
20260904133006 16 163 1.6 8.0 0.00 0.00 0.00 42 1001.5
20260904132505 16 163 6.4 8.0 0.00 0.00 0.00 42 1018.0
20260904132007 16 225 3.2 4.8 0.00 0.00 0.00 41 1018.0
20260904131506 15 225 1.6 4.8 0.00 0.00 0.00 42 1017.9
20260904131503 15 225 0.0 4.8 0.00 0.00 0.00 42 1001.2
20260904131006 15 225 3.2 4.8 0.00 0.00 0.00 42 1017.8
20260904130004 13 105 3.2 4.8 0.00 0.00 0.00 45 1001.1
20260904125506 13 105 0.0 6.4 0.00 0.00 0.00 45 1017.7
20260904124504 14 105 3.2 6.4 0.00 0.00 0.00 44 1000.9
20260904124006 14 159 3.2 8.0 0.00 0.00 0.00 43 1017.4
20260904123505 15 159 4.8 8.0 0.00 0.00 0.00 42 1017.4
20260904123006 15 262 1.6 4.8 0.00 0.00 0.00 42 1017.3
20260904123004 15 262 1.6 4.8 0.00 0.00 0.00 42 1000.6
20260904122507 15 262 3.2 4.8 0.00 0.00 0.00 41 1017.2
20260904122007 15 262 1.6 6.4 0.00 0.00 0.00 40 1017.0
20260904121505 15 262 3.2 11.3 0.00 0.00 0.00 40 1016.9
20260904121006 15 254 6.4 11.3 0.00 0.00 0.00 41 1016.9
20260904120008 15 259 4.8 9.7 0.00 0.00 0.00 41 1016.8
20260904120005 15 259 4.8 9.7 0.00 0.00 0.00 41 1000.1
20260904114505 15 259 4.8 6.4 0.00 0.00 0.00 43 1016.9
20260904114006 15 236 3.2 9.7 0.00 0.00 0.00 43 1016.8
20260904113004 15 225 6.4 12.9 0.00 0.00 0.00 42 1000.1
20260904112505 15 232 6.4 11.3 0.00 0.00 0.00 42 1016.7
20260904112006 15 232 6.4 11.3 0.00 0.00 0.00 42 1016.7
20260904111505 15 235 4.8 11.3 0.00 0.00 0.00 42 1016.7
20260904111503 15 235 4.8 11.3 0.00 0.00 0.00 42 1000.1
20260904111006 16 232 4.8 9.7 0.00 0.00 0.00 42 1016.7
20260904110505 15 292 3.2 11.3 0.00 0.00 0.00 43 1016.7
20260904110007 15 291 4.8 11.3 0.00 0.00 0.00 43 1016.7
20260904110004 15 291 4.8 11.3 0.00 0.00 0.00 43 1000.1
20260904105506 15 294 3.2 6.4 0.00 0.00 0.00 46 1016.7
20260904104505 15 219 3.2 6.4 0.00 0.00 0.00 45 1016.6
20260904103959 15 219 1.6 4.8 0.00 0.00 0.00 46 1016.4
20260904103506 15 219 0.0 4.8 0.00 0.00 0.00 47 1016.4
20260904103005 15 219 0.0 6.4 0.00 0.00 0.00 48 999.6
20260904102005 15 219 1.6 4.8 0.00 0.00 0.00 49 1016.1
20260904101505 15 219 1.6 4.8 0.00 0.00 0.00 49 1016.0
20260904101503 15 219 0.0 4.8 0.00 0.00 0.00 49 999.3
20260904101006 15 219 1.6 4.8 0.00 0.00 0.00 50 1016.0
20260904100505 15 219 1.6 6.4 0.00 0.00 0.00 50 1015.9
20260904100006 15 219 3.2 6.4 0.00 0.00 0.00 50 1015.8
20260904100004 15 219 3.2 6.4 0.00 0.00 0.00 50 999.2
20260904095504 15 173 1.6 4.8 0.00 0.00 0.00 50 1015.8
20260904095007 16 216 1.6 6.4 0.00 0.00 0.00 51 1015.8
20260904094505 16 226 1.6 6.4 0.00 0.00 0.00 51 1015.8
20260904094006 16 220 3.2 6.4 0.00 0.00 0.00 51 1015.8
20260904093505 16 223 3.2 8.0 0.00 0.00 0.00 53 1015.8
20260904093008 16 226 3.2 9.7 0.00 0.00 0.00 55 1015.7
20260904093004 16 226 3.2 9.7 0.00 0.00 0.00 55 999.0
20260904092505 15 217 1.6 9.7 0.00 0.00 0.00 56 1015.7
20260904092006 15 209 1.6 8.0 0.00 0.00 0.00 57 1015.6
20260904091505 15 206 3.2 4.8 0.00 0.00 0.00 58 1015.6
20260904091006 15 207 3.2 8.0 0.00 0.00 0.00 58 1015.5
20260904090505 15 207 4.8 9.7 0.00 0.00 0.00 58 1015.5
20260904090007 15 216 3.2 9.7 0.00 0.00 0.00 58 1015.4
20260904090005 15 216 3.2 9.7 0.00 0.00 0.00 58 998.7
20260904085007 16 188 0.0 4.8 0.00 0.00 0.00 57 1015.5
20260904084505 16 188 3.2 4.8 0.00 0.00 0.00 56 1015.4
20260904084007 16 188 3.2 6.4 0.00 0.00 0.00 55 1015.5
20260904083505 17 188 1.6 9.7 0.00 0.00 0.00 54 1015.6
20260904083006 17 174 6.4 9.7 0.00 0.00 0.00 54 1015.5
20260904083003 17 174 4.8 9.7 0.00 0.00 0.00 54 998.8
20260904082505 17 175 4.8 9.7 0.00 0.00 0.00 54 1015.5
20260904082006 17 190 4.8 6.4 0.00 0.00 0.00 54 1015.6
20260904081507 17 192 1.6 8.0 0.00 0.00 0.00 53 998.9
20260904080505 17 175 3.2 8.0 0.00 0.00 0.00 52 1015.7
20260904080004 17 161 1.6 9.7 0.00 0.00 0.00 53 999.0
20260904075504 17 163 4.8 9.7 0.00 0.00 0.00 53 1015.7
20260904075006 17 178 3.2 9.7 0.00 0.00 0.00 52 1015.7
20260904074506 17 202 4.8 8.0 0.00 0.00 0.00 51 1015.8
20260904074503 17 202 4.8 8.0 0.00 0.00 0.00 51 999.2
20260904074006 18 204 3.2 9.7 0.00 0.00 0.00 49 1015.9
20260904073505 18 204 4.8 14.5 0.00 0.00 0.00 49 1015.9
20260904073008 19 178 8.0 14.5 0.00 0.00 0.00 48 999.3
20260904072505 20 142 9.7 22.5 0.00 0.00 0.00 46 1016.0
20260904072007 20 178 14.5 27.4 0.00 0.00 0.00 46 1015.9
20260904071507 20 157 17.7 27.4 0.00 0.00 0.00 46 1015.7
20260904071504 20 157 16.1 27.4 0.00 0.00 0.00 46 999.1
20260904071007 20 158 17.7 24.1 0.00 0.00 0.00 46 1015.8
20260904070008 20 163 14.5 24.1 0.00 0.00 0.00 45 1015.8
20260904070005 20 163 12.9 24.1 0.00 0.00 0.00 45 999.2
20260904065507 20 153 14.5 22.5 0.00 0.00 0.00 45 1015.9
20260904065007 20 169 16.1 22.5 0.00 0.00 0.00 45 1015.9
20260904064505 20 158 12.9 22.5 0.00 0.00 0.00 45 1015.9
20260904064502 20 158 12.9 22.5 0.00 0.00 0.00 45 999.4
20260904064006 20 166 14.5 25.7 0.00 0.00 0.00 44 1015.9
20260904063508 20 154 16.1 25.7 0.00 0.00 0.00 44 1015.9
20260904063007 20 159 12.9 22.5 0.00 0.00 0.00 43 1015.9
20260904063004 20 159 12.9 22.5 0.00 0.00 0.00 43 999.4
20260904062505 21 168 12.9 22.5 0.00 0.00 0.00 43 1015.9
20260904062007 21 168 14.5 25.7 0.00 0.00 0.00 42 1015.9
20260904061509 21 150 14.5 25.7 0.00 0.00 0.00 42 999.5
20260904061506 21 150 14.5 25.7 0.00 0.00 0.00 42 1016.0
20260904060007 21 158 17.7 27.4 0.00 0.00 0.00 40 1015.9
20260904060004 21 158 17.7 27.4 0.00 0.00 0.00 40 999.5
20260904055504 21 148 16.1 27.4 0.00 0.00 0.00 40 1016.0
20260904055005 21 164 19.3 27.4 0.00 0.00 0.00 40 1016.0
20260904054506 21 174 17.7 27.4 0.00 0.00 0.00 39 999.6
20260904054504 21 174 17.7 27.4 0.00 0.00 0.00 39 1016.0
20260904054005 21 149 19.3 29.0 0.00 0.00 0.00 39 1016.0
20260904053504 21 151 16.1 27.4 0.00 0.00 0.00 39 1016.0
20260904053005 21 147 17.7 27.4 0.00 0.00 0.00 39 1016.0
20260904053002 21 169 17.7 27.4 0.00 0.00 0.00 39 999.6
20260904052505 21 163 17.7 25.7 0.00 0.00 0.00 38 1016.0
20260904052005 21 141 19.3 30.6 0.00 0.00 0.00 38 1016.0
20260904051504 22 157 19.3 30.6 0.00 0.00 0.00 37 1016.0
20260904051502 22 157 19.3 30.6 0.00 0.00 0.00 37 999.7
20260904051004 22 174 20.9 27.4 0.00 0.00 0.00 37 1016.0
20260904050006 22 174 19.3 29.0 0.00 0.00 0.00 36 1016.0
20260904050003 22 174 19.3 29.0 0.00 0.00 0.00 36 999.8
20260904045004 22 163 20.9 29.0 0.00 0.00 0.00 36 1016.0
20260904044504 22 171 20.9 29.0 0.00 0.00 0.00 36 1016.1
20260904044005 22 175 16.1 27.4 0.00 0.00 0.00 36 1016.1
20260904043504 22 143 19.3 30.6 0.00 0.00 0.00 36 1016.1
20260904043004 22 155 20.9 37.0 0.00 0.00 0.00 36 1016.2
20260904043002 22 155 19.3 37.0 0.00 0.00 0.00 36 1000.0
20260904042006 21 168 19.3 27.4 0.00 0.00 0.00 37 1016.2
20260904041504 21 181 17.7 24.1 0.00 0.00 0.00 38 1016.3
20260904041005 21 164 16.1 25.7 0.00 0.00 0.00 39 1016.4
20260904040008 21 159 11.3 24.1 0.00 0.00 0.00 38 1000.3
20260904035505 21 167 14.5 22.5 0.00 0.00 0.00 38 1016.5
20260904034558 22 158 17.7 30.6 0.00 0.00 0.00 37 1000.4
20260904034500 22 153 19.3 30.6 0.00 0.00 0.00 37 1016.5
20260904034004 22 146 20.9 30.6 0.00 0.00 0.00 37 1016.4
20260904033504 22 152 17.7 32.2 0.00 0.00 0.00 37 1016.3
20260904033002 22 162 17.7 29.0 0.00 0.00 0.00 36 1000.2
20260904032503 22 160 17.7 27.4 0.00 0.00 0.00 35 1016.1
20260904031505 22 148 19.3 29.0 0.00 0.00 0.00 34 1016.0
20260904031503 22 148 19.3 29.0 0.00 0.00 0.00 34 1000.0
20260904031005 22 162 17.7 30.6 0.00 0.00 0.00 33 1015.9
20260904030504 22 169 16.1 30.6 0.00 0.00 0.00 32 1015.9
20260904030006 23 154 17.7 25.7 0.00 0.00 0.00 29 1015.9
20260904030002 23 154 16.1 25.7 0.00 0.00 0.00 29 1000.0
20260904024503 23 172 16.1 24.1 0.00 0.00 0.00 25 1015.7
20260904024004 23 163 16.1 24.1 0.00 0.00 0.00 25 1015.6
20260904023004 23 191 14.5 22.5 0.00 0.00 0.00 25 1015.5
20260904023002 23 191 14.5 22.5 0.00 0.00 0.00 25 999.5
20260904022006 23 171 14.5 22.5 0.00 0.00 0.00 26 1015.4
20260904021504 23 169 14.5 24.1 0.00 0.00 0.00 26 1015.4
20260904021004 23 194 16.1 24.1 0.00 0.00 0.00 26 1015.3
20260904020504 23 153 14.5 24.1 0.00 0.00 0.00 26 1015.3
20260904020006 23 172 14.5 22.5 0.00 0.00 0.00 26 1015.3
20260904020003 23 172 14.5 22.5 0.00 0.00 0.00 26 999.3
20260904015503 23 165 12.9 19.3 0.00 0.00 0.00 26 1015.2
20260904014502 23 163 12.9 17.7 0.00 0.00 0.00 27 999.2
20260904014005 23 159 12.9 17.7 0.00 0.00 0.00 27 1015.2
20260904013505 24 173 11.3 17.7 0.00 0.00 0.00 26 1015.1
20260904013002 24 194 12.9 19.3 0.00 0.00 0.00 26 999.1
20260904012503 25 167 14.5 19.3 0.00 0.00 0.00 25 1015.0
20260904012004 25 171 12.9 17.7 0.00 0.00 0.00 25 1014.9
20260904011504 25 167 12.9 22.5 0.00 0.00 0.00 24 998.9
20260904011005 26 153 14.5 22.5 0.00 0.00 0.00 24 1014.9
20260904010505 26 184 12.9 24.1 0.00 0.00 0.00 23 1014.9
20260904010007 26 176 12.9 24.1 0.00 0.00 0.00 23 1014.8
20260904010003 26 176 12.9 24.1 0.00 0.00 0.00 23 998.8
20260904005504 26 158 14.5 19.3 0.00 0.00 0.00 23 1014.8
20260904005005 26 164 14.5 22.5 0.00 0.00 0.00 23 1014.9
20260904004503 27 157 12.9 29.0 0.00 0.00 0.00 23 1014.9
20260904004005 27 186 16.1 25.7 0.00 0.00 0.00 22 1014.9
20260904003504 27 165 16.1 25.7 0.00 0.00 0.00 23 1014.9
20260904003002 27 155 16.1 27.4 0.00 0.00 0.00 22 999.0
20260904002005 27 166 19.3 29.0 0.00 0.00 0.00 22 1014.9
20260904001503 28 163 19.3 29.0 0.00 0.00 0.00 21 1014.9
20260904001501 28 163 17.7 29.0 0.00 0.00 0.00 21 999.0
20260904001006 28 182 19.3 29.0 0.00 0.00 0.00 21 1014.9
20260904000008 28 119 20.9 29.0 0.00 0.00 0.00 21 1015.0
20260904000003 28 119 20.9 29.0 0.00 0.00 0.00 21 999.1
20260903234502 28 202 9.7 32.2 0.00 0.00 0.00 19 998.9
20260903234004 28 145 19.3 32.2 0.00 0.00 0.00 21 1014.9
20260903233503 28 135 19.3 25.7 0.00 0.00 0.00 21 1015.0
20260903233006 28 166 16.1 25.7 0.00 0.00 0.00 19 1015.0
20260903233002 28 166 16.1 25.7 0.00 0.00 0.00 19 999.1
20260903232005 28 131 14.5 22.5 0.00 0.00 0.00 20 1015.0
20260903231502 28 126 12.9 22.5 0.00 0.00 0.00 20 999.1
20260903231006 28 131 12.9 22.5 0.00 0.00 0.00 20 1015.1
20260903230504 28 130 14.5 27.4 0.00 0.00 0.00 19 1015.0
20260903230006 29 137 16.1 27.4 0.00 0.00 0.00 19 999.1
20260903225504 28 150 17.7 22.5 0.00 0.00 0.00 19 1015.1
20260903225006 28 120 11.3 24.1 0.00 0.00 0.00 19 1015.2
20260903224504 28 149 12.9 24.1 0.00 0.00 0.00 18 1015.2
20260903224502 28 149 11.3 24.1 0.00 0.00 0.00 18 999.2
20260903224005 28 171 14.5 25.7 0.00 0.00 0.00 19 1015.4
20260903223503 28 121 16.1 25.7 0.00 0.00 0.00 18 1015.3
20260903223005 28 143 19.3 27.4 0.00 0.00 0.00 18 1015.3
20260903223003 28 143 19.3 27.4 0.00 0.00 0.00 18 999.3
20260903222503 28 133 20.9 30.6 0.00 0.00 0.00 20 1015.3
20260903222006 28 142 22.5 30.6 0.00 0.00 0.00 20 1015.4
20260903221504 28 156 20.9 33.8 0.00 0.00 0.00 20 1015.4
20260903221502 28 156 20.9 33.8 0.00 0.00 0.00 20 999.4
20260903221005 28 122 16.1 33.8 0.00 0.00 0.00 21 1015.5
20260903220505 28 106 16.1 30.6 0.00 0.00 0.00 22 1015.5
20260903220006 28 121 19.3 25.7 0.00 0.00 0.00 22 1015.6
20260903220002 28 121 19.3 25.7 0.00 0.00 0.00 22 999.6
20260903215504 28 122 16.1 25.7 0.00 0.00 0.00 20 1015.7
20260903215004 28 121 8.0 20.9 0.00 0.00 0.00 22 1015.7
20260903214502 28 69 12.9 24.1 0.00 0.00 0.00 21 999.8
20260903214005 28 95 14.5 24.1 0.00 0.00 0.00 21 1015.9
20260903213503 28 158 19.3 25.7 0.00 0.00 0.00 21 1015.9
20260903213005 28 133 9.7 17.7 0.00 0.00 0.00 22 1000.0
20260903212006 27 107 6.4 24.1 0.00 0.00 0.00 21 1016.0
20260903211504 28 117 11.3 24.1 0.00 0.00 0.00 21 1016.1
20260903211502 28 117 11.3 24.1 0.00 0.00 0.00 21 1000.2
20260903211004 28 101 16.1 20.9 0.00 0.00 0.00 23 1016.2
20260903210504 28 191 11.3 32.2 0.00 0.00 0.00 21 1016.2
20260903210006 28 138 14.5 32.2 0.00 0.00 0.00 22 1016.3
20260903210002 28 138 14.5 32.2 0.00 0.00 0.00 22 1000.3
20260903205504 28 115 12.9 22.5 0.00 0.00 0.00 23 1016.4
20260903204503 27 138 9.7 27.4 0.00 0.00 0.00 24 1016.5
20260903204005 28 94 20.9 27.4 0.00 0.00 0.00 21 1016.5
20260903203004 28 154 12.9 22.5 0.00 0.00 0.00 22 1000.8
20260903202504 28 145 17.7 22.5 0.00 0.00 0.00 23 1016.6
20260903202006 27 161 14.5 25.7 0.00 0.00 0.00 23 1016.6
20260903201504 27 151 16.1 25.7 0.00 0.00 0.00 21 1016.7
20260903200504 27 135 16.1 29.0 0.00 0.00 0.00 23 1016.7
20260903200008 27 124 22.5 29.0 0.00 0.00 0.00 23 1001.1
20260903195005 27 144 14.5 27.4 0.00 0.00 0.00 25 1016.9
20260903194504 27 97 16.1 27.4 0.00 0.00 0.00 25 1016.9
20260903194502 27 97 16.1 27.4 0.00 0.00 0.00 25 1001.3
20260903194005 27 111 17.7 27.4 0.00 0.00 0.00 24 1016.9
20260903193504 27 159 8.0 29.0 0.00 0.00 0.00 24 1017.0
20260903193005 27 140 17.7 27.4 0.00 0.00 0.00 24 1017.1
20260903193002 27 140 17.7 27.4 0.00 0.00 0.00 24 1001.5
20260903192503 27 128 19.3 25.7 0.00 0.00 0.00 24 1017.2
20260903192006 27 190 12.9 24.1 0.00 0.00 0.00 25 1017.2
20260903191503 27 144 11.3 24.1 0.00 0.00 0.00 24 1017.3
20260903191004 27 116 16.1 29.0 0.00 0.00 0.00 25 1017.3
20260903190002 27 180 12.9 25.7 0.00 0.00 0.00 22 1001.8
20260903185504 27 205 11.3 17.7 0.00 0.00 0.00 21 1017.5
20260903185005 27 205 8.0 19.3 0.00 0.00 0.00 22 1017.4
20260903184502 27 231 4.8 19.3 0.00 0.00 0.00 22 1002.0
20260903184006 27 254 8.0 17.7 0.00 0.00 0.00 24 1017.7
20260903183505 27 266 6.4 17.7 0.00 0.00 0.00 24 1017.8
20260903183007 27 211 9.7 19.3 0.00 0.00 0.00 24 1017.8
20260903183003 27 211 8.0 19.3 0.00 0.00 0.00 24 1002.2
20260903182507 27 239 8.0 19.3 0.00 0.00 0.00 22 1018.0
20260903182005 26 232 6.4 17.7 0.00 0.00 0.00 25 1018.0
20260903181503 26 294 6.4 22.5 0.00 0.00 0.00 24 1018.0
20260903180504 26 222 4.8 14.5 0.00 0.00 0.00 25 1018.2
20260903180007 26 155 9.7 16.1 0.00 0.00 0.00 24 1018.3
20260903180003 26 155 9.7 16.1 0.00 0.00 0.00 24 1002.7
20260903175503 26 212 4.8 20.9 0.00 0.00 0.00 26 1018.3
20260903175005 26 218 8.0 20.9 0.00 0.00 0.00 24 1018.4
20260903174506 26 241 9.7 20.9 0.00 0.00 0.00 25 1018.4
20260903174006 26 309 6.4 11.3 0.00 0.00 0.00 25 1018.4
20260903173504 26 210 8.0 16.1 0.00 0.00 0.00 25 1018.5
20260903173001 26 280 3.2 22.5 0.00 0.00 0.00 26 1002.8
20260903172504 26 258 12.9 29.0 0.00 0.00 0.00 25 1018.6
20260903172005 26 254 6.4 29.0 0.00 0.00 0.00 26 1018.5
20260903171504 26 306 9.7 17.7 0.00 0.00 0.00 26 1002.8
20260903171005 26 227 6.4 19.3 0.00 0.00 0.00 26 1018.5
20260903170504 26 311 6.4 12.9 0.00 0.00 0.00 26 1018.5
20260903170006 25 276 4.8 20.9 0.00 0.00 0.00 26 1018.5
20260903170002 25 276 3.2 20.9 0.00 0.00 0.00 26 1002.9
20260903164502 25 315 6.4 16.1 0.00 0.00 0.00 26 1002.9
20260903163006 25 269 6.4 19.3 0.00 0.00 0.00 28 1018.4
20260903163001 25 269 6.4 19.3 0.00 0.00 0.00 28 1002.8
20260903162504 25 307 8.0 19.3 0.00 0.00 0.00 26 1018.3
20260903161504 25 260 6.4 22.5 0.00 0.00 0.00 29 1018.3
20260903161502 25 260 4.8 22.5 0.00 0.00 0.00 29 1002.7
20260903161004 25 289 9.7 19.3 0.00 0.00 0.00 27 1018.3
20260903160504 24 313 3.2 19.3 0.00 0.00 0.00 27 1018.4
20260903160008 24 250 8.0 19.3 0.00 0.00 0.00 29 1002.8
20260903155005 24 280 6.4 20.9 0.00 0.00 0.00 31 1018.4
20260903154602 24 269 6.4 20.9 0.00 0.00 0.00 30 1002.9
20260903153505 23 253 12.9 20.9 0.00 0.00 0.00 32 1018.4
20260903153101 23 207 8.0 16.1 0.00 0.00 0.00 31 1002.9
20260903153001 23 266 6.4 16.1 0.00 0.00 0.00 32 1018.4
20260903152504 23 247 9.7 16.1 0.00 0.00 0.00 31 1018.4